Wind_Gust
20 25 27 26 25 24 25 26 25 29 19 14 20 14 19 19 22 15 12 12 11 17 20 21 20 23 22 21 27 19 18 20 21 22 21 23 27 24 25 24 24 22 21 19 22 20 19 20 21 20 19 19 17 18 20 21 21 24 27 25 24 24 23 24 24 22 20 21 19 16 17 16 15 16 16 15 13 14 17 16 14 18 16 13 15 13
22 26 26 23 24 23 22 23 22 27 14 17 20 20 24 23 24 22 22 16 15 15 18 18 23 24 25 23 24 18 17 23 24 24 24 25 28 26 25 31 24 19 17 17 16 18 18 19 17 17 18 17 20 20 21 23 23 22 22 23 24 25 26 25 23 23 21 19 20 19 17 15 17 16 18 17 18 19 15 15 15 12 13 13 16 19
25 28 25 24 23 22 16 16 21 21 16 17 23 22 24 26 24 27 14 14 17 17 21 21 25 24 24 25 25 23 20 21 22 25 24 26 28 31 35 32 26 25 18 19 16 17 17 18 19 19 17 18 20 21 23 22 23 23 23 22 22 24 24 26 25 23 21 18 16 13 12 19 18 15 16 17 17 17 19 18 16 16 12 16 16 17
24 27 28 25 22 14 16 14 15 17 18 21 23 26 26 24 27 28 20 18 19 23 19 20 22 22 21 21 25 27 25 23 22 24 26 26 25 27 29 30 31 31 25 19 18 19 19 19 19 18 19 20 21 21 22 23 24 24 24 23 22 23 22 23 22 18 18 16 15 15 16 15 14 16 15 10 15 16 15 18 19 19 20 19 17 17
26 20 22 26 19 17 19 18 18 20 22 22 23 24 26 24 26 22 15 16 12 17 18 22 25 26 23 27 30 28 26 24 25 23 23 25 27 26 24 23 21 23 31 24 17 23 21 21 21 20 20 22 24 24 23 22 23 22 22 24 23 23 21 19 19 17 13 12 18 17 17 16 14 14 16 14 16 17 16 15 16 18 19 19 17 13
27 24 12 16 18 20 21 22 22 20 24 23 22 24 23 22 25 17 14 21 23 26 27 24 30 31 26 31 33 28 31 29 24 26 26 26 26 26 26 25 23 17 30 29 26 26 25 23 20 21 21 22 24 24 22 19 18 18 19 18 19 18 17 17 17 16 20 21 21 21 20 20 19 19 14 16 19 20 19 18 16 18 17 17 15 16
27 20 19 18 19 20 23 24 20 22 25 24 24 24 26 24 20 20 23 22 26 27 21 29 28 28 21 26 28 29 28 26 24 26 26 27 28 29 28 26 23 22 27 23 24 26 26 22 21 22 20 23 23 22 19 19 19 22 18 11 16 15 10 13 16 20 19 14 15 16 15 14 17 17 16 14 16 16 18 16 16 16 15 16 14 11
26 23 19 19 19 22 23 26 24 23 26 28 13 14 15 19 21 22 25 26 27 24 13 14 24 28 29 21 15 21 24 26 26 27 26 27 25 27 27 28 24 27 26 27 27 28 26 23 23 23 22 17 18 24 28 21 13 18 15 11 12 11 14 14 16 17 18 18 16 14 17 19 20 19 18 21 19 17 18 15 16 14 15 14 14 14
20 24 17 19 19 25 26 22 17 23 28 22 13 13 17 20 21 23 24 25 25 23 30 27 24 33 30 24 22 22 26 25 23 23 22 20 22 24 24 25 26 24 28 26 27 28 26 23 20 18 18 16 24 21 16 17 21 18 11 11 13 20 16 19 17 18 17 19 21 21 21 24 12 12 14 18 18 18 16 15 13 14 15 15 14 14
22 25 22 22 22 25 20 18 19 18 25 21 17 15 19 16 19 21 25 26 25 26 28 25 23 31 27 24 27 25 23 21 17 11 14 15 18 22 23 22 24 27 22 22 24 23 21 18 17 16 15 21 21 23 17 16 17 19 17 22 22 26 25 17 17 18 18 16 16 13 12 12 13 11 15 16 18 18 15 12 16 16 15 16 15 14
14 13 15 25 27 22 20 22 20 19 21 13 12 17 23 24 24 22 25 28 26 31 31 25 26 28 31 15 20 16 14 15 14 14 13 13 17 22 20 24 19 21 23 22 21 22 21 19 18 18 17 16 20 21 19 16 17 19 22 24 22 21 17 14 15 16 18 17 18 17 15 14 13 13 15 17 19 18 13 18 17 17 15 14 15 14
22 21 20 25 19 22 21 25 25 23 21 21 24 23 22 25 23 23 24 23 29 31 24 26 28 26 31 17 13 17 12 12 12 13 11 14 15 14 15 19 20 19 20 22 22 23 21 20 19 19 19 18 21 23 22 21 20 22 23 23 21 18 19 20 20 22 22 21 21 19 18 15 12 13 17 14 15 13 15 19 18 15 14 14 14 13
34 30 19 20 22 26 24 23 23 24 23 25 23 25 26 25 23 28 27 30 31 30 23 24 27 30 31 16 18 13 10 10 9 12 14 14 16 16 17 17 18 19 19 20 20 20 22 21 22 19 18 20 21 23 23 25 24 24 22 23 21 22 22 25 23 22 21 21 20 19 17 16 15 14 13 15 10 14 16 20 17 16 16 15 16 14
30 25 23 22 21 26 24 29 27 27 29 28 30 28 29 29 27 23 26 25 26 26 24 21 11 26 16 19 18 16 11 9 9 10 12 11 16 15 16 17 17 16 18 20 19 18 17 18 19 21 16 18 21 20 25 26 23 22 22 23 23 22 22 21 22 22 22 20 17 17 16 16 15 13 11 10 14 13 14 15 16 15 15 15 14 15
26 31 33 28 29 27 30 30 25 22 28 32 25 31 28 27 31 23 25 25 25 21 20 18 21 25 30 20 15 15 12 10 10 10 10 13 13 14 15 16 17 17 17 19 19 17 14 15 16 18 18 16 19 23 25 25 24 23 22 23 23 23 24 21 21 22 21 20 17 17 15 15 15 14 12 14 19 20 19 17 16 14 14 14 15 15
28 28 21 30 21 29 30 29 28 22 25 28 27 26 29 28 20 28 12 18 16 20 21 22 23 17 18 19 15 14 14 13 12 14 14 14 14 13 14 14 15 15 17 15 13 13 12 12 13 14 16 15 20 22 21 21 22 22 23 21 22 22 23 21 20 22 21 19 19 18 18 19 19 18 18 18 18 18 18 16 15 14 12 13 13 13
26 33 18 26 29 26 28 27 30 25 26 23 29 34 28 19 25 23 16 20 8 18 22 9 27 25 21 18 13 13 15 15 13 14 14 15 15 14 12 13 13 14 15 14 13 12 11 13 15 17 15 17 20 23 22 21 24 24 23 21 21 23 21 22 22 21 21 23 20 21 21 19 21 21 18 20 20 18 16 13 13 13 13 13 12 14
21 20 19 23 28 25 21 27 27 28 27 20 28 25 21 22 20 25 24 16 23 26 22 24 28 23 22 18 19 14 13 13 14 13 15 14 14 14 12 11 12 12 12 12 12 12 13 13 14 16 17 17 18 15 16 22 21 22 20 20 22 24 24 24 25 25 22 20 22 22 22 20 21 22 21 19 19 18 16 13 12 11 13 12 14 15
23 24 22 21 22 24 23 23 28 29 31 29 22 11 29 24 23 25 23 22 20 25 25 27 25 21 17 17 16 16 15 13 11 14 15 16 17 15 14 13 11 10 11 11 11 12 14 13 12 11 12 13 18 16 11 15 15 16 16 19 21 25 25 24 25 25 24 22 22 21 20 19 19 19 19 19 19 17 16 15 15 13 12 13 13 15
16 23 21 21 26 24 25 28 29 29 30 29 24 23 21 24 22 25 29 22 26 21 20 19 24 16 13 15 12 17 14 13 14 12 13 16 17 19 17 15 13 13 12 13 13 13 11 11 10 9 8 12 16 13 12 14 13 15 16 17 19 22 22 23 23 24 24 21 21 21 19 17 19 18 19 18 19 20 17 17 16 15 14 13 13 14
18 18 23 25 22 20 30 32 30 29 30 34 32 28 26 28 14 19 17 27 25 23 23 19 21 17 15 12 14 13 11 11 12 13 13 14 16 15 14 16 12 11 11 12 14 15 13 12 12 13 16 17 16 12 11 10 10 14 15 16 18 20 21 22 23 22 21 22 23 23 20 17 18 20 20 18 21 18 18 16 16 16 15 15 13 13
21 20 24 21 27 28 25 27 27 27 28 29 31 31 27 26 28 26 24 27 34 32 26 22 16 17 13 13 9 13 9 10 12 12 11 13 16 15 15 16 15 14 11 12 14 13 12 13 14 13 20 22 22 15 10 8 8 7 11 14 14 16 18 18 21 19 20 21 22 21 23 19 18 21 19 19 19 17 19 17 16 15 15 14 14 15
22 18 26 24 23 24 24 21 24 20 20 25 28 30 29 25 25 25 25 25 31 34 26 22 14 12 13 12 11 11 9 12 12 13 13 14 15 15 19 21 18 13 14 14 11 12 13 12 12 14 17 20 20 14 10 11 8 8 9 12 12 15 16 15 13 16 17 20 19 23 23 22 22 20 20 19 18 17 19 17 16 16 15 15 15 15
11 28 24 28 25 23 13 13 13 17 18 23 24 19 17 22 23 25 20 15 17 18 26 21 18 17 12 10 12 13 12 12 10 11 15 16 16 20 20 21 18 16 14 12 13 11 11 11 11 11 13 18 18 13 10 8 8 8 10 10 12 13 13 13 13 14 13 18 18 18 16 18 13 19 19 19 18 17 17 17 15 15 15 15 16 17
24 26 27 24 29 28 21 22 24 21 26 29 27 27 27 24 19 14 19 18 20 19 22 19 10 12 15 11 14 12 13 14 16 15 16 16 17 18 19 19 20 18 17 14 15 16 15 15 13 13 13 15 16 13 10 7 6 8 10 11 10 12 13 15 14 14 14 14 14 18 15 11 16 17 17 18 19 18 18 18 17 15 17 16 16 15
22 19 28 30 29 31 29 31 31 28 31 30 24 25 22 22 20 23 20 21 25 19 16 19 12 15 19 18 17 16 14 14 14 14 14 18 17 19 18 18 19 21 20 19 16 15 15 13 14 13 12 14 13 13 13 10 9 9 10 12 12 13 14 16 17 14 16 13 18 18 14 11 12 13 16 17 17 17 17 18 17 16 14 15 15 15
17 22 25 24 24 20 19 21 24 22 26 34 26 22 23 24 23 21 19 21 25 14 20 18 19 22 20 18 17 16 15 15 15 14 16 16 17 18 17 18 17 18 18 18 16 16 16 20 20 15 14 15 14 14 15 14 14 11 10 12 14 12 15 16 18 15 17 16 18 16 14 13 10 9 12 11 14 16 17 18 17 16 17 16 15 15
20 20 25 23 20 19 16 16 21 25 25 25 22 25 23 19 18 18 23 22 15 17 12 16 18 24 22 19 17 17 15 15 14 13 13 15 16 17 18 18 14 17 17 16 17 18 18 17 18 20 19 15 15 17 17 16 17 13 13 15 12 11 15 22 20 14 13 15 15 16 14 14 13 12 12 13 15 17 16 16 16 15 15 14 15 15
17 26 22 25 25 17 13 14 19 22 22 20 24 20 17 20 23 21 17 12 12 17 14 21 18 18 19 18 17 18 16 15 14 15 14 14 16 15 16 17 16 17 16 16 16 17 17 18 18 18 18 19 19 15 14 16 15 15 14 16 15 16 18 17 18 16 17 17 16 16 16 15 14 12 11 11 13 13 16 15 15 14 14 14 14 14
19 16 19 21 21 21 14 12 11 17 19 20 17 18 13 12 13 10 12 10 14 15 19 21 25 20 17 17 17 17 16 16 16 15 15 16 16 15 17 17 17 16 16 17 16 16 17 18 19 19 19 19 18 19 19 18 16 14 15 15 16 17 16 16 13 18 20 20 19 17 16 16 15 15 12 11 11 11 14 15 14 12 12 13 14 14
13 16 17 19 22 22 13 14 11 20 24 15 15 13 11 12 13 13 15 17 20 20 20 24 23 18 12 13 16 16 17 17 17 17 17 16 15 14 15 17 17 17 17 17 17 18 19 20 19 19 20 20 18 17 17 16 14 16 18 15 14 15 16 20 19 19 18 21 19 18 16 17 19 16 16 15 15 14 10 13 12 11 13 13 13 12
13 11 12 19 21 14 13 13 13 11 13 17 19 20 17 11 11 12 12 13 10 16 18 17 15 13 14 14 15 16 17 18 18 16 16 16 14 14 16 18 18 18 18 19 19 20 21 21 21 20 19 19 17 17 16 16 18 19 18 17 18 16 14 15 19 20 20 21 20 18 18 16 19 18 16 16 15 15 15 15 12 15 13 12 10 10
12 13 10 16 25 22 15 14 15 14 19 15 16 18 18 12 11 10 13 13 16 14 20 14 14 20 19 17 18 17 17 18 18 16 16 16 16 16 17 18 18 18 19 20 21 21 21 19 18 18 18 17 19 19 18 17 18 20 19 19 15 15 18 19 16 17 19 18 20 20 21 20 19 18 17 16 15 13 15 15 17 17 17 15 10 6
12 13 12 12 19 13 16 16 11 14 21 14 13 14 15 17 21 11 15 18 18 19 18 20 24 23 20 17 18 18 19 19 19 18 17 16 17 18 18 18 18 19 21 21 20 20 19 20 20 19 18 17 15 13 11 15 19 19 19 20 19 18 18 18 17 18 16 15 16 14 16 19 21 21 19 16 14 10 12 12 10 8 10 8 10 11
9 11 10 10 12 11 10 10 16 19 18 6 10 17 16 14 16 14 14 17 20 12 19 22 23 21 20 21 21 23 25 25 23 23 21 20 21 21 20 19 20 21 22 20 21 21 20 21 19 19 21 19 17 13 12 17 18 19 22 21 21 19 16 18 20 22 17 13 16 17 13 14 18 18 19 20 21 19 14 13 12 11 11 9 8 10
9 11 10 6 10 12 13 19 20 14 4 8 10 17 20 13 21 9 15 18 20 16 20 23 21 22 23 24 22 22 25 26 27 26 22 20 20 19 19 20 21 23 23 18 20 20 20 21 21 20 18 16 19 19 19 19 19 21 21 19 19 13 14 20 20 20 17 17 18 11 13 15 15 16 17 19 22 21 18 15 13 11 12 11 10 9
12 14 14 12 12 9 10 10 11 11 10 11 8 14 18 13 17 14 10 12 16 13 17 22 21 21 22 21 22 23 23 24 27 26 22 20 19 18 19 20 21 21 21 20 18 17 15 18 21 21 19 20 21 21 19 16 17 19 21 22 21 20 21 23 22 18 18 18 18 18 18 20 20 18 16 14 16 17 18 18 16 13 12 12 10 8
15 15 14 14 17 16 16 19 19 16 11 11 6 11 11 11 13 13 13 5 13 13 14 18 21 22 22 21 21 21 16 22 23 17 17 17 18 18 19 19 19 20 20 18 18 18 18 18 19 23 24 21 22 23 21 16 19 21 24 24 23 24 25 25 22 19 18 19 19 20 20 20 18 15 17 16 15 15 15 13 12 15 16 15 12 11
12 16 14 17 14 13 15 16 13 10 12 13 16 15 12 14 12 11 12 8 12 10 11 17 20 20 21 22 18 11 12 19 17 12 15 14 15 17 19 19 19 18 18 19 19 19 19 18 17 19 22 24 24 26 23 21 19 23 26 24 23 23 24 22 20 20 20 20 20 22 21 19 19 19 18 19 17 13 13 12 11 13 14 14 8 12
12 13 14 21 17 19 17 13 15 16 15 17 18 17 13 9 13 10 13 13 10 11 12 17 20 20 17 12 14 18 12 21 19 14 11 12 11 14 16 16 16 17 17 17 17 17 17 17 21 22 22 23 24 22 24 21 22 23 25 24 22 23 23 22 20 19 19 19 19 18 19 19 19 18 19 19 17 16 14 12 8 9 11 15 16 12
9 11 13 12 16 17 18 23 22 18 12 20 21 19 12 8 7 7 7 10 9 13 16 17 17 13 12 13 12 16 17 19 18 14 14 12 12 13 14 14 15 15 15 16 17 15 19 19 19 19 17 16 21 22 21 20 21 23 23 23 24 24 23 20 19 19 19 20 20 21 21 20 20 20 19 18 16 15 15 15 15 10 10 12 14 15
12 9 6 9 15 9 11 19 22 18 13 25 25 15 13 10 7 8 8 13 10 16 14 13 15 16 18 19 21 23 20 17 15 15 17 16 15 14 14 15 15 15 14 14 14 15 17 19 18 17 18 17 15 16 20 19 21 21 21 22 25 23 21 20 20 19 19 20 21 21 21 21 19 17 17 16 14 14 15 14 13 12 11 13 12 12
13 14 12 12 15 11 9 19 16 13 18 28 27 12 21 10 9 7 12 9 13 14 15 15 17 18 22 25 25 27 25 21 19 17 17 17 16 16 13 14 15 15 15 15 16 15 15 17 17 14 11 10 12 14 16 18 19 19 19 23 20 20 20 20 19 19 19 20 20 19 19 19 19 18 17 16 15 14 14 12 12 11 11 10 11 11
15 10 14 14 16 12 20 19 14 14 16 20 21 16 14 13 8 8 9 15 14 13 16 18 19 21 24 29 28 27 24 24 21 16 14 12 12 12 13 15 15 15 15 15 16 16 16 17 16 15 14 14 13 12 13 15 15 15 17 18 16 17 18 19 19 19 19 18 18 18 18 17 17 17 15 16 15 14 14 13 11 12 12 13 10 9
21 22 19 20 19 20 18 16 14 14 14 15 17 16 14 15 15 14 18 18 17 15 18 22 23 23 25 27 26 25 25 21 21 17 15 12 12 12 13 15 13 13 14 14 15 15 15 17 15 15 14 14 14 13 13 13 14 14 15 14 14 15 16 17 18 18 17 17 18 17 17 16 17 16 15 14 14 13 14 13 13 13 12 11 12 11
16 24 24 33 37 31 29 19 14 15 17 18 17 17 17 17 17 17 18 20 16 15 16 24 22 23 23 22 28 24 23 21 20 20 19 17 16 14 13 13 13 14 14 14 13 12 12 13 13 14 14 13 13 15 15 17 16 16 13 11 11 11 11 12 13 13 13 13 13 14 15 14 13 13 14 13 12 12 13 13 12 12 11 11 11 11
15 11 16 20 16 15 21 18 21 21 19 18 19 20 21 21 20 19 22 21 18 18 23 22 23 22 20 20 21 22 22 19 19 19 18 17 17 15 14 16 16 16 15 15 15 13 13 12 14 14 14 14 14 16 16 15 16 16 15 14 13 11 11 10 9 9 9 10 10 10 12 12 13 11 12 12 13 13 14 13 12 13 15 16 15 12
24 22 33 28 28 30 23 21 23 25 25 24 23 22 22 23 23 22 22 22 23 19 21 20 18 19 17 20 18 19 19 17 17 15 15 15 15 15 14 15 14 14 14 16 16 15 14 15 15 15 14 15 15 15 16 16 17 16 15 14 13 12 11 11 12 12 11 11 11 11 11 12 4 8 11 12 14 15 15 15 15 15 17 17 16 16
17 12 22 21 32 30 25 23 26 26 29 29 29 28 26 24 24 24 23 24 23 23 23 23 21 19 20 19 16 16 17 16 15 14 14 13 13 13 13 14 13 14 14 14 14 14 16 15 15 15 15 15 15 15 16 16 16 16 14 14 13 12 11 10 9 10 11 11 11 11 10 10 11 11 9 12 14 16 16 14 14 14 16 15 14 14
23 28 25 21 24 20 17 18 12 21 24 26 26 26 26 25 26 25 23 23 22 23 23 22 20 17 17 15 15 14 14 14 13 13 13 13 11 10 8 9 10 10 11 11 12 14 13 12 13 13 14 14 14 15 16 16 16 16 16 15 14 13 11 10 9 10 12 13 13 13 12 11 11 11 11 11 12 17 16 7 9 12 15 15 7 9
20 15 12 20 20 24 22 22 23 24 24 23 22 23 24 23 23 23 22 22 20 19 21 22 21 18 16 14 12 13 12 11 11 11 11 11 10 10 13 12 12 12 13 13 12 12 11 11 12 12 12 13 13 13 15 16 16 16 17 16 15 15 14 12 10 11 11 13 14 14 13 12 12 13 12 11 10 11 17 16 14 10 11 10 6 6
Wind_Speed
8 10 11 11 11 12 14 15 15 16 10 6 10 5 8 8 10 7 1 3 2 7 10 10 10 12 12 10 16 10 9 9 11 12 10 7 14 11 12 7 7 8 10 10 10 12 10 11 11 10 10 10 10 10 11 12 12 14 14 13 13 13 13 11 11 9 9 8 7 7 8 7 7 7 6 5 4 4 3 3 4 6 4 4 6 3
10 11 12 12 14 14 13 14 14 16 8 7 9 10 9 10 10 10 12 8 6 6 7 9 12 13 14 13 13 7 9 11 14 14 13 14 14 13 13 13 13 4 5 4 7 9 9 9 10 9 9 10 11 11 12 12 12 13 13 14 13 10 12 12 11 9 9 9 8 7 7 6 8 7 7 7 5 6 6 7 4 6 5 4 5 5
10 12 12 14 13 13 10 9 12 13 8 8 10 10 11 11 9 17 3 4 7 7 8 10 12 12 13 14 13 13 10 10 12 14 14 15 16 14 15 14 13 10 6 5 6 5 8 10 11 8 9 10 11 11 12 13 13 12 12 11 12 12 12 12 11 10 9 7 6 5 3 4 5 4 7 7 8 6 9 6 4 4 5 5 5 8
10 11 16 14 13 8 7 7 7 8 9 8 10 11 11 10 12 11 9 9 10 8 8 10 11 10 12 12 14 15 13 12 12 14 16 15 15 16 17 17 15 18 11 9 3 9 7 9 11 10 9 11 10 11 12 13 14 10 9 11 11 11 10 10 10 9 8 6 5 4 3 6 4 6 5 4 7 7 7 9 8 5 4 6 7 9
11 10 13 16 12 8 10 10 9 8 9 11 12 11 11 12 13 9 4 6 6 8 10 11 11 10 10 12 12 15 15 13 14 14 12 14 15 15 14 11 12 15 16 12 9 8 12 11 12 12 11 11 12 11 12 12 10 8 9 9 11 8 8 7 8 6 4 6 10 7 7 4 3 4 6 2 3 6 8 7 8 8 10 11 8 6
13 14 5 8 10 9 10 11 11 10 10 10 13 14 13 13 15 9 7 8 8 10 12 13 10 11 12 17 17 13 14 15 12 12 14 14 15 15 15 15 9 6 19 17 16 16 15 14 11 11 12 12 13 12 10 6 6 8 6 6 8 8 7 4 7 8 7 6 7 8 8 6 4 6 2 5 7 8 7 7 7 10 8 8 8 8
12 6 9 8 9 10 13 12 11 12 11 11 9 14 16 15 11 11 12 10 10 10 8 15 12 8 9 13 15 15 16 15 12 14 15 15 15 16 15 14 10 12 14 14 14 15 17 14 13 12 12 12 12 10 2 5 9 12 7 4 6 4 3 5 9 8 7 6 6 5 6 5 6 5 4 5 5 6 7 7 7 6 7 8 6 5
12 12 10 11 11 11 11 11 12 12 11 10 6 7 7 10 12 13 14 13 11 12 5 2 7 10 10 9 6 10 13 13 15 16 15 15 15 15 16 15 12 15 16 12 13 14 15 14 13 13 12 9 4 13 12 6 6 7 5 6 2 5 4 5 8 9 8 9 6 7 5 3 4 5 6 5 4 5 6 7 8 6 6 6 5 5
11 13 8 9 11 10 11 11 10 13 11 8 6 3 8 10 12 13 11 11 11 10 12 11 13 11 11 10 10 12 14 15 14 13 13 11 10 11 14 14 15 12 16 14 12 13 14 13 10 9 8 8 13 8 7 8 11 9 5 2 6 6 9 7 8 9 9 10 10 9 9 8 4 4 6 6 7 7 6 5 4 5 6 6 6 6
9 13 12 12 10 10 10 9 10 10 11 11 9 6 9 7 9 11 11 11 11 11 12 12 9 10 10 9 11 13 12 10 7 0 2 6 8 10 11 13 9 10 8 11 13 12 10 11 8 7 8 12 10 7 3 5 6 10 10 14 14 17 9 6 8 10 11 9 8 6 5 6 7 5 5 5 4 4 4 1 3 2 3 5 4 5
7 7 8 11 12 10 9 10 10 9 11 6 4 7 9 11 10 10 10 11 10 12 14 14 15 13 11 4 7 3 2 4 5 5 4 3 7 9 12 8 5 11 9 9 10 11 11 10 10 9 9 10 11 11 12 9 10 11 13 11 13 10 9 8 9 10 10 8 7 6 6 6 5 4 4 3 3 5 1 1 2 7 6 5 6 5
9 8 8 9 10 9 11 12 13 13 12 12 8 9 9 10 10 10 9 10 10 11 12 14 15 16 13 5 3 5 1 3 0 3 3 5 7 5 5 7 5 8 11 11 10 12 13 12 12 11 11 11 13 13 12 11 11 12 13 12 10 9 11 11 11 11 11 9 10 8 8 8 6 4 2 5 6 6 8 8 8 6 6 6 6 5
16 14 9 11 11 16 12 11 10 12 12 12 10 10 11 8 6 9 9 11 11 10 10 13 16 14 13 3 5 5 3 1 2 4 5 6 4 5 6 4 5 6 8 10 11 11 12 12 12 11 11 12 13 13 13 12 12 11 13 14 13 13 13 14 12 11 11 10 10 10 9 8 6 6 4 3 3 4 5 6 6 7 6 6 6 6
12 13 13 12 11 13 12 11 10 11 12 13 13 11 11 10 9 9 10 7 9 11 13 10 4 9 6 8 2 4 4 2 0 4 4 2 6 6 7 6 5 4 3 6 6 7 8 9 10 12 9 11 12 12 14 15 13 12 12 15 14 14 14 12 12 12 13 11 10 10 9 8 8 6 4 2 3 4 4 6 7 7 6 6 7 7
10 12 14 14 11 14 14 13 12 9 12 14 12 13 11 10 8 8 8 8 10 7 9 10 8 7 14 6 7 5 5 3 2 1 1 4 5 6 6 7 7 7 6 7 10 9 7 7 10 10 10 9 11 13 14 14 14 13 13 14 15 15 15 13 12 11 11 9 8 9 8 7 6 7 5 6 5 4 6 9 8 7 7 6 7 7
15 10 10 16 11 14 16 16 15 12 11 12 12 11 12 11 7 10 4 6 3 6 8 7 6 5 4 7 3 4 3 4 3 4 4 5 5 5 6 7 7 8 9 7 4 5 5 6 6 7 8 8 10 13 12 13 13 13 14 13 14 14 14 13 13 13 10 9 9 11 11 9 9 7 6 5 7 6 8 8 7 7 5 6 6 6
10 12 11 14 18 15 17 14 15 12 9 8 12 13 12 8 11 8 6 10 5 4 7 1 7 10 8 4 5 5 5 5 3 5 4 6 6 6 5 5 5 6 6 7 5 4 4 4 6 8 8 9 11 11 11 10 12 14 13 12 13 13 12 13 12 13 13 13 11 11 11 11 10 9 9 9 12 11 9 7 6 6 6 7 6 7
8 8 11 12 17 14 11 14 15 15 11 6 10 10 10 10 9 8 7 4 7 9 6 8 11 6 7 4 9 7 6 5 5 5 6 5 5 6 4 4 4 3 3 3 3 4 4 5 8 8 9 10 10 3 4 3 10 10 10 11 12 14 14 13 13 13 11 12 13 12 12 11 12 11 11 10 10 9 8 7 6 5 6 6 6 7
9 8 9 10 10 12 12 12 15 16 17 13 8 3 11 8 11 9 4 8 6 8 7 11 14 8 4 4 5 7 6 5 5 5 5 7 6 6 6 6 4 4 4 4 4 4 5 6 6 5 6 5 9 4 3 7 4 5 7 10 12 14 14 14 13 14 10 10 9 10 11 11 10 10 11 10 10 9 8 8 7 7 6 6 7 7
6 8 7 11 13 11 12 10 11 12 16 18 13 10 8 9 8 8 8 8 8 8 6 8 11 2 4 6 4 2 5 5 6 5 4 7 8 7 7 6 5 5 5 2 2 4 4 4 3 1 2 6 8 6 1 5 4 8 9 9 10 12 12 13 14 14 12 10 9 10 10 9 9 9 9 10 10 9 8 8 8 8 7 7 6 7
4 6 8 8 13 9 11 10 13 12 12 14 13 11 9 9 4 6 6 9 8 6 8 6 6 5 1 4 7 6 5 5 5 6 6 5 5 6 7 8 5 5 3 3 3 4 5 5 6 6 8 9 8 4 3 1 5 4 6 5 7 10 12 13 13 13 11 9 9 11 9 8 9 9 8 10 10 9 9 8 8 8 7 6 6 7
5 5 8 8 11 11 10 12 15 15 14 13 12 13 11 11 12 11 9 3 9 5 4 7 1 4 2 0 1 6 3 3 5 5 5 5 5 7 7 9 8 6 6 6 8 7 6 6 7 7 11 12 5 5 5 2 3 1 4 6 5 7 8 9 7 7 9 7 9 11 9 7 7 8 8 9 10 9 8 8 7 7 7 7 7 7
7 5 9 9 8 10 13 12 15 12 11 13 13 13 13 11 8 6 8 6 11 12 13 7 4 4 1 2 2 5 3 5 5 5 5 5 5 7 10 12 10 8 8 7 6 6 6 6 6 7 10 10 5 3 5 7 4 1 3 5 4 4 6 5 7 6 3 7 8 11 6 5 1 6 10 9 8 9 9 7 7 7 7 6 7 7
6 6 8 12 6 11 3 2 4 7 5 10 11 9 6 8 8 10 6 3 4 5 7 6 2 4 5 2 4 6 6 6 4 4 6 6 8 11 11 11 10 9 8 4 6 4 5 5 6 4 7 7 4 1 5 5 3 1 4 4 4 5 5 6 5 5 4 6 1 6 7 5 4 8 9 10 8 9 9 8 7 7 7 7 7 8
5 9 11 8 8 11 9 7 9 10 11 10 10 10 11 9 8 2 5 7 7 4 11 8 1 2 5 3 5 5 6 7 8 8 8 8 8 8 9 10 11 11 10 8 6 7 7 8 7 5 4 6 5 3 4 3 3 3 2 2 1 3 4 5 6 4 4 2 4 10 3 5 6 5 9 9 9 10 9 9 7 6 7 7 7 7
7 4 8 10 11 12 10 10 11 10 13 11 12 14 12 12 12 8 7 6 7 8 9 5 1 5 9 9 8 9 6 7 7 7 8 10 10 10 9 8 10 12 11 11 10 9 9 7 5 6 6 5 3 3 4 3 2 2 3 5 5 6 5 7 6 7 7 8 9 7 9 6 2 5 7 8 9 9 9 9 9 8 7 7 7 7
3 5 9 10 9 6 4 6 13 11 10 13 15 9 8 12 13 11 7 6 8 4 6 7 6 10 10 10 10 9 8 8 8 8 8 8 10 10 9 9 10 10 11 11 10 9 9 12 13 9 8 6 5 4 4 3 3 4 5 6 7 5 7 7 6 6 7 8 9 8 6 4 3 3 1 2 5 7 7 9 8 8 8 7 7 8
4 6 10 12 12 8 7 6 8 14 10 12 12 13 14 9 8 9 7 7 6 5 3 1 5 5 9 10 8 8 7 7 8 7 7 8 8 9 10 10 10 9 8 8 9 11 11 10 11 12 11 8 6 7 6 5 5 5 6 7 6 6 8 10 9 7 5 9 8 8 8 7 7 6 5 6 4 7 7 8 8 6 7 6 7 7
2 3 10 10 13 11 6 7 4 8 12 4 1 5 8 10 12 13 10 4 1 6 1 9 10 6 7 9 8 9 7 6 7 8 8 8 9 9 9 10 9 10 9 9 9 9 10 11 11 11 11 11 10 8 7 6 6 6 6 8 8 8 9 9 8 7 10 8 8 8 9 8 7 6 6 6 5 7 7 7 7 6 6 6 6 6
4 4 4 7 10 12 7 5 4 2 9 9 8 10 5 3 2 2 1 3 2 8 11 12 16 12 8 9 10 9 8 8 7 8 8 9 9 8 9 10 10 9 9 9 9 9 10 11 11 11 11 11 11 11 11 10 8 7 8 8 8 8 8 8 6 9 10 11 10 8 7 8 7 8 7 5 5 5 7 6 6 5 6 6 7 6
3 1 7 5 4 12 3 4 4 8 14 6 4 3 5 4 5 5 7 8 11 11 11 14 15 10 6 8 9 9 8 8 8 10 10 9 9 8 9 10 9 9 9 9 9 10 10 11 11 11 12 12 11 10 9 8 6 8 10 8 6 7 8 10 10 9 8 10 9 9 9 8 7 8 8 6 7 7 3 7 5 5 6 6 6 6
3 2 3 4 5 5 4 3 1 3 6 8 10 11 9 5 2 4 3 5 2 7 11 11 7 4 6 7 8 9 9 9 10 9 9 8 8 8 9 9 9 9 9 10 10 9 10 11 12 12 11 11 11 10 9 8 8 11 10 10 10 9 6 8 10 10 11 11 10 9 9 7 9 10 8 8 8 7 8 6 6 7 6 5 4 4
2 2 2 4 8 8 3 2 3 6 6 1 8 9 10 7 5 3 6 7 7 3 3 4 3 9 10 8 10 9 10 10 10 8 8 9 9 9 9 9 10 10 10 10 10 11 10 11 11 10 11 10 10 10 9 8 9 11 11 10 8 8 8 8 8 9 9 9 10 10 10 10 10 9 9 7 6 6 8 8 9 9 9 8 4 1
2 4 3 1 2 2 5 3 2 2 7 1 5 8 9 9 12 3 7 10 11 7 4 7 11 13 12 10 10 10 10 10 10 10 9 8 8 10 10 10 10 10 10 11 11 11 11 11 10 10 11 10 9 7 7 9 10 10 10 10 10 8 8 8 9 7 6 6 6 6 9 10 11 11 10 8 6 5 6 7 5 5 5 5 6 6
1 3 3 3 1 1 3 4 4 8 2 2 4 9 9 8 9 7 8 10 11 5 12 13 13 12 12 12 12 14 14 14 13 13 13 12 12 11 11 11 11 11 13 12 13 12 12 11 11 12 13 11 10 8 6 8 9 10 11 11 11 10 7 9 11 10 9 7 8 7 6 8 10 10 10 10 9 6 6 6 5 4 4 4 4 4
1 3 2 1 1 1 2 5 6 2 2 2 4 9 12 7 12 4 9 11 12 7 12 13 12 13 14 14 13 12 14 14 16 16 14 12 12 11 11 11 13 13 13 10 12 12 13 13 13 12 11 9 11 11 10 9 9 11 11 10 9 5 6 10 11 10 8 8 7 5 3 6 8 7 9 10 11 10 8 7 6 6 5 5 5 4
4 2 3 2 4 2 1 2 4 5 4 6 3 7 7 5 8 7 4 5 9 6 8 12 13 13 13 12 13 12 12 13 15 13 13 12 12 11 11 11 11 12 12 12 11 10 9 10 13 13 10 12 13 12 11 9 9 11 11 12 9 9 11 12 12 10 10 10 9 6 7 10 11 10 8 4 9 9 10 9 8 5 4 5 4 4
7 3 2 2 3 5 4 6 6 5 4 4 3 6 6 6 6 7 5 2 7 7 7 10 12 12 13 12 12 13 10 11 10 7 9 10 10 11 11 11 11 12 11 10 10 11 11 10 11 14 13 14 14 14 12 9 9 11 13 13 13 13 14 14 12 10 10 9 8 8 10 11 10 9 8 5 7 7 6 5 5 6 5 6 6 5
2 4 5 2 4 3 5 6 4 3 5 6 9 9 7 6 6 6 4 2 4 5 6 9 11 11 12 12 10 6 5 8 6 4 5 7 8 9 10 11 11 11 11 11 12 12 12 10 10 11 14 16 16 16 15 13 11 12 13 13 13 13 14 13 11 10 11 10 10 10 9 9 10 10 10 10 8 6 5 4 3 4 3 2 3 3
2 2 1 7 7 7 5 2 4 5 5 9 10 10 7 5 7 4 3 4 5 6 7 9 11 12 10 7 7 9 4 9 7 5 5 5 6 8 9 9 9 10 10 10 10 10 10 11 13 14 13 14 14 14 15 13 12 14 13 12 12 13 13 12 11 10 10 10 9 9 9 9 9 9 9 10 9 8 6 5 2 2 5 3 2 4
2 2 4 2 5 6 11 7 7 6 4 12 12 10 6 4 1 1 1 4 3 6 8 9 9 7 6 6 5 7 8 9 9 8 7 6 7 8 8 8 8 8 8 9 8 8 10 11 11 11 11 9 11 12 12 11 11 13 12 12 13 14 13 11 10 10 10 9 10 11 11 10 10 10 9 8 8 7 7 7 7 4 4 6 7 7
4 3 1 1 5 2 2 7 8 6 5 13 14 7 6 4 2 2 2 6 1 9 8 7 9 9 10 11 11 12 11 11 9 8 9 10 9 8 8 9 9 9 8 7 7 8 9 10 11 11 11 11 9 9 11 11 12 11 11 12 14 14 11 11 11 10 10 10 11 11 11 11 10 9 8 7 6 6 7 6 6 4 5 5 5 6
4 4 2 4 3 2 2 7 5 4 7 17 16 1 12 3 4 1 5 2 7 8 8 8 9 9 13 14 15 17 15 13 12 11 10 10 9 8 8 8 9 9 9 9 9 9 8 8 9 8 7 5 7 7 7 9 11 11 11 13 12 10 10 10 10 10 10 10 10 10 10 9 10 8 7 7 7 7 7 5 5 5 5 4 5 4
5 3 2 5 5 3 7 7 4 4 7 11 11 6 6 5 3 3 2 7 7 6 9 9 10 11 13 17 16 16 15 15 13 10 9 8 7 7 8 9 8 9 9 9 9 9 9 8 8 8 7 5 5 6 7 8 8 8 10 11 9 9 10 10 10 10 10 9 9 9 8 8 8 8 7 8 7 7 7 6 5 5 5 5 4 3
9 9 6 8 8 6 6 6 6 6 6 7 9 8 8 8 8 8 8 8 8 7 10 11 13 12 14 16 16 15 14 12 12 9 7 7 8 7 7 8 7 8 8 8 8 8 8 8 8 7 7 6 6 5 6 6 7 8 9 8 7 8 9 9 9 9 9 9 9 9 8 8 8 7 7 6 6 6 6 6 6 5 5 4 5 4
9 14 13 14 14 16 14 10 7 8 9 10 10 9 9 10 10 10 11 10 9 7 9 12 12 14 13 13 14 13 12 12 11 10 10 9 9 7 4 7 8 8 8 8 8 7 7 7 7 7 7 7 6 6 7 7 7 8 7 5 5 6 6 7 7 7 7 7 7 7 7 7 6 7 7 6 5 6 5 5 5 5 4 4 4 3
7 4 6 6 7 5 8 10 12 11 10 10 10 12 12 11 11 11 13 12 11 11 13 13 13 12 12 12 12 13 13 12 12 10 10 9 9 9 8 8 8 8 8 9 9 7 7 6 7 7 7 8 7 7 7 7 7 7 7 7 6 6 5 5 4 4 4 4 4 4 5 6 6 4 5 6 6 6 6 5 5 5 7 7 6 4
11 12 15 15 15 12 10 12 13 15 15 14 10 9 12 13 14 14 12 12 11 11 13 12 11 11 10 11 11 11 11 10 10 9 8 7 7 7 7 7 7 7 8 8 8 8 7 8 8 8 7 7 7 7 7 7 8 7 7 6 6 6 5 5 5 4 4 4 4 4 3 4 2 2 4 5 6 6 6 7 7 6 7 7 7 6
7 5 8 10 12 13 15 14 15 16 17 17 17 15 11 12 13 14 14 14 13 14 14 14 13 12 12 11 10 9 10 9 8 8 7 7 7 6 6 6 6 7 7 7 7 7 8 7 7 7 7 7 6 7 7 8 7 7 7 6 5 4 4 4 4 4 4 4 4 3 3 3 3 3 3 4 6 7 7 6 6 6 7 7 6 5
10 12 12 10 10 8 6 7 5 7 9 12 15 15 16 15 15 15 15 14 14 14 13 14 12 11 10 9 9 8 8 7 7 7 7 6 6 4 3 3 3 4 5 4 5 7 5 6 7 7 6 6 6 7 7 8 8 8 7 6 5 5 4 3 3 4 5 5 4 5 4 4 4 4 4 4 5 7 7 6 8 8 6 6 5 7
8 6 4 7 7 10 11 13 13 12 13 11 12 13 14 13 13 14 13 13 12 12 13 13 13 11 10 8 7 7 6 5 6 6 6 5 4 4 6 6 6 5 6 6 6 5 5 5 6 6 6 6 6 6 7 7 7 8 8 8 7 6 6 5 3 4 4 5 5 5 5 5 5 5 4 4 4 4 7 7 6 9 9 9 5 6
Wind_Direction
175 221 212 215 225 216 217 228 236 239 269 301 305 289 243 255 266 228 20 58 142 266 251 263 254 259 259 242 241 185 188 213 217 216 201 194 236 214 223 229 254 226 187 194 190 170 186 158 163 159 172 171 170 176 170 171 171 164 167 158 160 160 160 164 170 174 175 183 174 177 175 173 166 171 153 166 182 186 161 111 159 166 169 168 145 166
214 226 228 224 228 232 222 223 245 261 286 259 254 257 251 249 248 256 213 186 236 241 255 238 248 249 250 246 258 201 196 215 216 221 217 210 224 220 217 205 159 237 315 144 185 161 184 168 165 155 164 175 183 179 179 177 173 172 165 166 171 171 171 172 171 172 178 178 179 175 172 184 170 170 164 165 174 198 123 148 163 148 173 180 167 160
214 227 230 233 232 235 245 250 225 241 248 240 247 249 256 249 252 256 143 167 234 221 253 255 258 252 241 244 239 249 191 219 221 221 221 220 215 219 223 216 139 158 237 26 326 214 179 180 171 159 171 184 192 184 189 187 181 175 172 166 166 166 173 169 175 176 170 176 170 160 148 184 192 170 173 174 160 200 139 149 181 174 175 187 190 192
220 224 236 236 234 230 228 244 249 229 239 245 231 238 246 250 232 234 215 215 226 241 260 256 255 250 247 240 238 245 228 211 224 223 224 224 229 223 211 212 167 175 152 155 202 282 223 188 179 169 184 188 196 195 195 193 189 175 176 164 165 170 176 179 169 169 154 155 126 137 187 225 210 176 180 143 167 157 135 150 170 204 197 202 204 198
225 236 199 216 226 202 218 214 224 229 230 221 244 250 240 241 253 264 257 199 246 230 249 268 267 259 249 244 236 235 236 216 218 224 229 227 228 234 237 238 195 162 151 139 152 238 248 198 187 181 189 192 197 198 201 197 189 189 171 165 161 165 187 177 154 106 121 161 169 170 181 179 154 159 162 104 190 157 155 171 165 199 193 190 201 192
242 256 87 231 189 197 221 224 218 232 238 228 220 239 252 260 268 237 242 262 242 244 217 227 247 245 229 232 240 231 221 223 218 225 229 235 235 229 231 219 181 158 129 147 177 189 208 213 193 188 195 202 200 200 205 178 208 163 174 137 148 179 181 124 109 169 192 169 164 162 156 159 182 169 105 179 182 182 182 175 185 185 180 187 188 177
239 210 170 213 216 221 227 233 214 212 239 240 216 213 229 248 259 264 256 255 253 252 254 209 239 258 239 233 220 224 233 214 206 224 229 228 227 232 229 230 177 139 134 155 176 187 195 196 196 195 197 202 205 201 160 56 30 36 22 21 342 22 46 156 180 177 172 176 189 168 160 164 174 163 191 188 210 187 180 170 188 188 183 183 184 195
230 200 190 214 221 228 224 222 217 209 227 238 234 217 246 230 239 242 251 252 260 273 261 289 228 265 266 254 245 229 233 224 209 210 220 226 224 227 234 230 203 148 139 172 180 186 191 189 192 194 193 196 153 64 53 63 68 99 306 9 117 95 259 197 181 164 183 172 161 157 158 165 164 196 166 185 210 189 212 184 181 181 176 193 168 180
197 234 209 209 217 224 226 223 211 205 229 239 232 243 229 244 243 250 242 240 250 252 255 210 220 249 255 260 238 225 231 229 231 215 206 221 237 243 239 231 233 157 145 166 182 190 191 186 180 191 183 108 90 104 177 174 134 160 158 52 92 144 212 206 184 175 187 184 169 174 166 180 157 175 194 189 203 190 184 168 194 189 175 184 166 173
195 228 208 225 215 220 228 216 221 203 225 237 252 205 253 260 265 253 241 243 235 241 247 249 216 246 253 253 243 218 231 214 229 164 226 235 248 248 253 247 124 107 170 181 183 188 187 166 169 166 120 119 138 144 58 80 113 132 135 136 155 191 195 176 183 182 186 177 170 157 148 152 149 162 179 222 191 176 131 203 175 333 238 160 160 158
217 202 252 212 220 233 220 224 228 202 222 254 280 252 220 235 238 235 250 250 246 234 238 243 249 249 262 251 328 302 82 35 124 188 223 273 266 234 243 247 157 159 175 180 180 158 162 157 163 135 129 150 137 149 152 148 154 152 147 155 172 170 143 168 187 186 179 181 175 165 168 155 143 168 190 173 197 110 89 125 227 210 189 160 156 159
196 182 206 222 243 234 236 227 210 225 212 222 220 229 241 224 223 232 229 238 245 246 239 234 245 238 249 182 107 69 33 44 137 244 243 235 233 245 246 206 157 166 178 165 151 165 159 163 157 147 161 159 147 150 160 171 171 167 158 166 170 155 153 168 181 189 187 182 179 174 166 160 154 138 210 151 185 189 166 189 192 205 167 159 149 143
222 210 204 216 200 235 212 238 210 206 212 219 220 225 233 221 211 224 218 221 227 240 237 247 236 229 232 52 115 113 77 153 20 276 234 232 196 221 220 189 188 186 177 158 178 166 168 167 162 160 167 163 154 161 173 174 178 170 165 165 173 175 168 176 179 185 190 190 181 174 164 147 137 166 152 238 176 202 182 190 194 177 161 152 143 139
229 230 204 211 194 206 226 211 204 200 206 215 216 214 222 220 214 230 227 227 236 229 243 252 259 249 97 107 107 129 93 43 325 267 251 238 163 191 187 146 213 200 166 214 174 189 172 169 162 159 170 165 170 174 171 177 179 173 162 173 178 180 170 170 182 187 179 184 177 172 155 150 154 151 141 183 206 187 209 248 187 170 156 147 140 138
220 211 211 204 202 179 216 224 217 215 199 214 219 219 223 230 216 225 238 230 227 251 235 214 225 235 239 106 160 134 121 129 130 265 181 117 161 183 185 166 171 168 206 220 203 192 189 164 164 168 175 191 178 181 188 181 173 165 167 174 181 172 167 169 184 182 179 178 161 163 152 147 155 142 159 154 213 213 218 202 171 158 153 140 136 133
232 238 213 206 228 179 209 216 240 227 212 205 219 229 230 224 219 251 238 279 316 269 219 194 244 17 45 107 66 99 92 140 169 145 138 140 154 166 170 169 169 164 173 179 166 153 150 156 165 180 193 194 187 184 194 179 167 164 165 172 180 174 163 168 174 174 174 171 164 159 156 163 161 149 152 153 199 189 209 187 157 142 137 126 126 124
217 229 219 188 216 210 204 212 222 243 240 190 204 218 226 227 226 233 247 256 256 256 259 221 233 103 127 82 135 139 140 132 140 134 148 155 148 144 162 157 168 172 164 166 159 155 145 155 184 202 190 193 193 185 194 179 169 164 162 176 176 168 164 170 171 170 171 173 164 165 166 163 158 155 163 176 195 168 175 157 148 146 138 130 117 120
250 232 206 191 202 215 214 207 222 219 243 248 225 217 226 231 245 243 255 210 219 246 242 189 218 164 196 200 162 145 135 120 137 128 135 115 139 140 138 144 145 152 164 161 147 151 165 194 202 199 196 198 192 120 5 188 168 162 167 172 176 162 171 171 169 165 171 170 169 169 171 167 161 170 166 188 165 159 151 149 137 124 123 122 122 133
230 244 210 204 219 198 212 226 218 219 218 239 240 224 232 197 217 216 247 237 237 234 237 229 222 193 211 110 167 167 151 151 165 143 135 124 128 126 114 114 118 127 128 143 165 166 185 189 191 196 195 158 81 122 214 312 307 236 192 177 178 175 174 174 169 163 165 170 167 170 171 167 168 172 171 173 153 149 151 148 135 131 131 127 129 142
202 245 211 209 224 203 199 202 225 209 201 224 235 241 245 271 235 220 215 239 236 241 246 242 233 57 339 109 87 176 180 167 156 142 126 117 111 112 120 103 78 55 20 302 128 119 122 115 125 170 83 76 99 72 212 229 219 254 235 191 182 175 172 171 171 162 157 170 168 168 168 170 170 173 168 162 153 151 158 148 144 143 140 138 141 143
226 215 253 178 217 200 204 197 221 209 198 195 217 230 212 228 264 237 226 243 229 238 233 244 228 133 104 314 141 168 162 162 148 138 114 102 109 106 100 103 91 65 88 24 55 67 59 55 39 47 53 79 95 144 122 276 187 235 279 229 194 177 171 169 170 163 153 172 172 169 162 171 173 166 162 152 154 159 158 156 150 148 147 147 148 142
220 217 232 217 203 204 218 196 221 213 204 205 208 219 222 216 220 216 226 238 277 257 255 244 252 53 65 122 158 123 118 111 117 117 113 114 121 101 82 84 82 83 27 24 31 34 40 30 24 40 75 85 111 152 142 90 18 142 259 237 196 192 177 149 150 170 141 194 184 177 140 184 167 168 155 156 156 158 155 156 151 148 151 154 149 154
235 231 228 233 204 221 230 209 211 229 230 227 212 217 221 230 233 246 244 213 234 233 246 196 151 136 141 23 89 94 104 114 116 140 133 129 112 89 76 77 81 74 61 30 37 43 42 40 35 58 76 91 126 169 139 121 126 237 244 232 213 197 151 146 144 157 141 187 193 145 151 147 272 181 152 145 155 156 150 150 145 150 150 152 147 155
205 229 231 234 239 258 202 143 202 221 245 237 229 247 224 250 259 249 266 322 283 343 305 277 184 111 91 58 70 83 82 81 85 118 112 83 66 55 65 71 66 63 67 44 44 35 51 60 55 46 91 106 115 101 44 47 90 180 259 246 218 180 150 146 106 75 57 332 8 110 141 104 253 180 151 154 157 149 150 152 142 151 152 149 154 152
214 206 235 229 217 212 185 215 218 207 226 232 229 221 223 208 209 197 327 286 261 178 230 268 181 176 130 131 109 93 103 76 68 68 88 91 78 69 59 50 46 43 31 47 54 55 58 58 56 56 62 88 91 79 76 73 42 59 10 10 329 169 101 64 33 132 141 122 40 87 47 154 195 236 157 157 153 153 152 145 150 154 154 144 155 152
254 251 227 230 216 217 199 205 212 199 208 219 227 233 226 230 221 187 213 225 246 238 263 259 75 101 140 145 136 134 123 119 112 99 78 72 76 71 61 55 42 38 29 24 30 42 48 57 72 72 63 71 101 107 118 117 106 79 40 25 29 31 99 83 75 127 139 118 119 121 128 147 45 270 164 158 151 157 150 149 156 156 154 153 155 157
263 285 262 254 256 259 278 328 318 286 204 216 212 196 211 231 240 242 228 229 242 292 243 356 148 171 159 146 151 135 127 121 119 94 88 78 79 80 78 64 53 46 31 21 19 28 28 23 19 37 61 59 56 116 132 127 122 91 77 66 44 46 94 107 108 109 120 122 122 129 141 108 128 181 334 107 141 153 152 151 154 161 151 159 155 157
279 256 251 275 279 274 290 291 298 307 280 234 223 202 215 226 252 243 225 236 269 176 183 109 80 158 141 136 132 122 109 91 81 82 84 84 83 84 79 74 69 62 50 37 33 26 24 25 26 27 31 45 67 62 73 84 85 81 75 72 81 58 97 109 110 135 132 115 116 128 127 132 95 79 118 148 179 171 163 150 157 163 151 160 159 160
271 258 269 274 259 248 235 244 327 320 309 319 349 275 214 194 214 228 232 249 47 267 150 147 144 146 137 138 136 134 117 101 82 70 59 68 79 83 81 76 70 60 50 42 39 32 28 29 27 32 37 30 37 58 69 70 74 87 90 94 99 112 113 127 145 140 130 119 115 113 111 104 95 83 78 75 128 163 160 150 152 159 146 165 155 173
308 239 290 272 277 293 240 219 180 15 285 182 204 200 220 246 241 281 166 96 54 84 110 134 112 99 82 80 82 85 86 96 93 76 66 67 63 71 79 77 68 60 53 47 43 39 37 34 31 28 27 27 39 51 53 56 62 70 88 94 104 116 118 113 125 131 130 128 125 120 111 99 95 85 75 77 90 127 150 148 147 146 151 164 162 173
315 299 8 349 286 233 271 266 165 160 241 140 99 86 98 104 78 48 75 66 85 95 98 112 110 101 75 85 94 92 88 81 77 69 65 65 66 68 71 70 67 60 53 46 39 40 40 36 32 29 25 22 28 48 57 57 49 61 68 72 94 105 129 133 136 139 133 127 122 116 118 116 118 107 94 82 69 52 89 147 141 156 159 166 162 175
180 311 352 281 281 263 208 202 140 219 145 85 54 42 25 347 61 34 72 41 87 139 139 127 124 122 126 107 99 100 93 79 71 67 64 61 63 70 73 66 65 62 53 44 38 40 43 40 34 30 22 22 23 20 38 53 64 70 64 55 44 34 39 111 121 119 121 120 114 110 110 112 113 107 90 75 65 61 44 31 160 167 157 145 146 161
194 195 220 246 253 247 252 223 64 45 10 157 39 16 357 0 37 116 79 61 43 126 146 177 115 126 134 128 113 95 85 78 74 67 72 66 61 64 64 66 64 61 56 50 44 40 39 38 32 22 17 14 30 36 35 48 58 63 72 63 44 52 45 44 88 110 119 126 132 137 127 121 111 109 102 87 69 58 54 52 41 49 48 49 35 166
210 246 240 110 260 221 169 111 91 210 217 98 20 349 355 2 349 39 54 32 35 48 79 81 120 127 132 132 113 103 85 78 77 66 59 61 66 63 63 63 63 60 56 51 46 43 43 41 36 25 18 6 355 6 14 38 65 62 57 60 52 47 77 69 68 61 60 92 99 111 127 134 133 128 120 110 92 80 87 72 56 40 46 47 35 46
238 230 237 142 229 237 128 135 162 221 207 55 12 16 351 338 357 63 68 42 20 83 111 109 118 126 112 102 101 98 94 87 77 71 63 59 62 63 62 62 64 66 62 54 47 41 38 32 27 26 21 5 4 19 35 53 58 68 66 63 56 27 43 71 66 55 44 66 100 103 99 132 134 136 143 147 135 136 114 118 133 150 145 126 112 91
231 225 232 139 111 43 184 171 193 118 65 120 74 15 353 341 4 354 87 38 26 40 100 97 89 97 104 107 106 105 99 90 73 58 56 54 53 58 62 64 67 64 60 51 53 45 39 40 35 28 18 358 12 26 38 48 63 68 70 71 75 76 62 68 67 57 53 51 39 40 77 130 130 139 137 141 151 151 145 141 148 151 140 124 119 109
284 310 287 217 174 214 139 89 82 130 126 40 23 21 9 4 345 356 26 60 20 28 103 112 111 108 109 114 119 122 117 96 70 51 41 49 58 58 60 58 56 62 64 59 51 43 30 31 35 27 21 21 17 15 11 31 52 69 70 68 66 74 76 67 61 63 59 65 71 68 63 53 59 58 67 105 138 142 144 144 139 139 145 115 115 129
12 295 43 332 194 223 157 136 140 185 134 67 44 353 1 341 324 310 305 95 43 49 90 116 118 123 119 124 130 132 132 80 65 46 30 39 55 67 65 63 62 60 57 57 51 44 36 33 36 29 29 24 12 11 8 21 51 56 59 57 56 56 58 56 54 57 64 69 73 88 88 90 90 93 93 88 100 104 108 108 119 145 141 131 136 143
37 274 283 273 295 233 201 181 167 136 67 32 9 355 355 333 331 313 283 120 50 46 94 122 122 125 129 133 138 155 132 96 99 74 37 44 60 65 67 64 62 59 55 51 47 42 32 32 36 31 33 23 14 4 4 15 39 57 57 51 48 51 55 55 53 51 52 55 62 60 56 68 84 86 86 84 86 78 88 110 114 105 109 131 158 145
37 303 245 239 226 232 243 196 96 52 67 5 352 349 345 348 296 314 210 115 43 71 100 118 122 126 124 111 71 46 76 127 121 86 70 63 57 61 65 68 68 68 65 60 54 49 43 33 35 30 34 27 8 7 5 7 34 46 50 46 41 43 42 41 42 46 47 50 57 66 69 70 77 83 89 94 107 120 122 120 99 343 137 149 54 50
110 248 288 329 253 101 96 100 104 98 59 356 349 337 358 349 329 254 8 55 50 105 117 116 115 111 100 90 83 87 46 66 82 90 88 86 73 65 68 74 72 72 72 70 67 63 52 41 43 39 31 32 13 11 10 9 27 38 39 38 39 36 31 26 31 39 45 46 49 53 54 55 58 65 73 77 75 85 112 130 127 136 236 155 155 150
43 341 152 326 358 336 159 97 89 77 37 350 342 343 2 277 14 47 3 304 269 112 97 86 82 77 81 84 95 95 93 87 85 76 70 60 55 58 64 70 76 76 80 91 96 76 66 59 49 40 30 16 16 17 17 13 25 30 29 33 33 24 18 17 21 28 33 41 43 44 46 44 41 43 44 49 68 83 78 59 57 90 112 107 107 118
22 319 66 34 346 317 62 113 117 78 29 3 334 354 16 28 21 272 310 355 128 118 103 85 84 91 99 96 97 103 102 97 92 86 79 71 57 46 44 47 49 57 60 63 63 61 71 71 65 62 60 37 17 15 23 22 28 27 28 34 24 16 15 16 19 25 30 32 38 39 39 40 37 38 36 38 40 42 48 58 72 71 73 88 99 91
2 279 62 66 359 23 44 50 45 15 346 358 10 46 18 32 34 32 334 60 35 74 92 91 93 101 106 109 109 105 103 103 95 86 86 85 79 64 61 55 51 50 47 49 55 61 63 66 70 73 72 53 53 48 27 27 30 31 36 31 14 13 16 20 22 25 28 27 27 32 34 35 38 32 36 35 34 39 40 38 40 49 45 26 22 51
19 56 39 73 26 41 66 69 48 48 32 28 34 49 51 43 62 62 60 46 48 50 85 98 105 107 106 109 109 113 109 105 105 103 94 89 81 70 74 71 63 58 52 44 43 45 51 58 66 71 68 63 59 55 58 47 44 38 38 24 18 21 22 21 24 23 25 24 23 20 27 33 33 30 26 29 32 34 35 36 26 41 35 30 36 24
100 97 97 87 87 85 68 63 72 65 57 52 51 52 58 60 57 65 64 63 39 35 88 98 105 107 109 111 114 113 112 119 116 109 109 103 101 103 83 70 62 53 50 40 34 38 50 64 58 54 57 54 52 57 50 41 40 41 39 28 30 36 32 24 26 21 17 22 26 22 26 24 31 38 26 20 33 34 35 31 32 28 28 29 32 32
88 114 97 99 140 105 59 49 61 65 69 72 70 65 64 64 70 73 72 64 57 50 80 95 107 109 108 112 110 111 111 110 105 104 102 98 88 82 76 65 54 42 34 34 22 20 41 46 50 48 48 48 42 43 47 44 46 41 35 34 29 32 42 35 29 58 43 32 35 46 44 35 8 19 41 24 28 37 27 24 32 36 31 21 17 17
93 87 80 76 81 85 99 88 79 72 68 68 70 73 73 75 76 75 78 76 66 57 57 55 59 80 100 106 107 109 112 109 105 101 91 83 75 71 67 60 54 48 46 34 23 17 33 42 48 42 40 42 38 38 40 37 38 44 44 37 32 25 35 46 30 42 51 47 52 37 55 68 321 342 70 54 46 40 29 25 25 46 43 23 11 5
98 110 80 95 94 100 110 106 97 84 72 67 69 75 84 88 88 86 85 84 79 73 63 58 52 50 47 62 76 89 91 90 87 87 85 79 69 54 43 43 39 37 30 33 33 34 34 30 41 37 38 39 36 35 39 33 32 30 41 43 48 43 40 38 46 44 50 46 41 50 43 61 58 52 60 95 97 70 47 30 25 45 73 46 28 21
106 99 115 114 108 114 130 140 116 88 84 76 75 83 87 91 94 92 88 84 81 83 82 80 75 68 69 68 69 67 70 71 71 75 74 67 67 60 74 70 45 35 37 50 45 34 36 47 46 43 34 38 28 31 33 31 27 26 28 32 32 32 35 46 61 59 54 40 31 13 25 38 40 41 49 43 98 112 82 43 43 35 53 74 66 58
75 89 113 94 92 90 87 84 85 90 92 94 97 95 98 101 97 93 92 96 96 95 96 98 97 95 90 91 93 94 92 85 72 60 61 65 49 27 16 23 24 26 28 30 35 34 24 47 54 50 39 37 28 27 28 31 22 24 23 24 24 24 19 21 44 63 60 57 49 1 349 37 32 38 36 47 27 102 126 112 74 45 55 87 87 59